Torna al catalogo

STARLINK-4287

AttivoComunicazioniVLEO
NORAD 53020·PAYLOAD·🇺🇸 United States

Lanciato Jul 7, 2022 da Cape Canaveral Space Force Station

Loading…

Prossimi Passaggi (prossime 24 ore)

TLE

AggiornatoSource: CelesTrak SupGP

Epoca: Sep 15, 2026, 02:13 UTC

1 53020C 22076AL  26258.09284722  .00033609  00000+0  96176-3 0  2584
2 53020  53.1591 307.4010 0001125  91.4382 143.2669 15.35375912    10

Traccia STARLINK-4287 in tempo reale con AllMySat

Download on the App Store